JCSAT-2B

Last updated on Thu Nov 21 2024 00:02:43 GMT+0000 (Coordinated Universal Time)

1 41471U 16028A 24324.75402501 -.00000164 00000+0 00000+0 0 9993 2 41471 0.0148 314.2516 0001105 310.7659 219.7050 1.00270303 31365
UTC large
Height (km)
Speed (km/s)
/
Latitude / Longitude
Inclination (degrees)
Orbital Period (minutes)
Azimuth
Elevation
Range (km)
Doppler Factor

Next 0 passes for location: London (51.5072 / 0.1276)

Sorry there are no passes over London.